Hourly Data Report for July 22, 2006

TORONTO CITY
ONTARIO

43°40'00.000" N
79°24'00.000" W
112.50 m
6158355
71508
XTO

Download Data

Hourly Data (July 2006)
Hourly Data Report for July 22, 2006
TIME
LST
Temp Definition
°C
Dew Point Definition
°C
Rel Hum Definition
%
Precip. Amount Definition
mm

Wind Dir Definition
10's deg

Wind Spd Definition
km/h
Visibility Definition
km
Stn Press Definition
kPa
Hmdx Definition


Wind Chill Definition


Weather Definition


00:00 22.1 18.8 82   LegendMM LegendMM   99.77 29   LegendNANA
01:00 21.9 18.5 81   LegendMM LegendMM   99.73 28   LegendNANA
02:00 21.4 18.5 84   LegendMM LegendMM   99.68 28   LegendNANA
03:00 21.6 18.9 85   LegendMM LegendMM   99.63 28   LegendNANA
04:00 21.4 17.8 80   LegendMM LegendMM   99.61 27   LegendNANA
05:00 20.9 17.5 81   LegendMM LegendMM   99.58 27   LegendNANA
06:00 20.6 17.1 80   LegendMM LegendMM   99.57 26   LegendNANA
07:00 20.5 16.8 79   LegendMM LegendMM   99.58 26   LegendNANA
08:00 20.4 17.0 81   LegendMM LegendMM   99.58 26   LegendNANA
09:00 20.3 17.0 81   LegendMM LegendMM   99.59 26   LegendNANA
10:00 19.6 16.6 83   LegendMM LegendMM   99.62     LegendNANA
11:00 18.8 17.5 92   LegendMM LegendMM   99.62     LegendNANA
12:00 17.5 16.8 96   LegendMM LegendMM   99.62     LegendNANA
13:00 18.9 18.0 95   LegendMM LegendMM   99.61     LegendNANA
14:00 20.6 18.2 86   LegendMM LegendMM   99.64 27   LegendNANA
15:00 21.5 17.8 79   LegendMM LegendMM   99.61 27   LegendNANA
16:00 21.3 18.8 86   LegendMM LegendMM   99.62 28   LegendNANA
17:00 21.9 16.6 72   LegendMM LegendMM   99.64 27   LegendNANA
18:00 21.7 16.4 72   LegendMM LegendMM   99.66 27   LegendNANA
19:00 20.8 17.8 83   LegendMM LegendMM   99.68 27   LegendNANA
20:00 19.8 17.9 89   LegendMM LegendMM   99.70     LegendNANA
21:00 19.0 17.6 92   LegendMM LegendMM   99.75     LegendNANA
22:00 18.6 17.4 93   LegendMM LegendMM   99.78     LegendNANA
23:00 17.9 17.1 95   LegendMM LegendMM   99.79     LegendNANA

Notes on Data Quality.

Legend

  • E = Estimated
  • M = Missing
  • NA = Not Available*
  • [empty] = Indicates an unobserved value
Date modified: